AAY105 KTYS-KDCA

Flight info

Callsign AAY105
Flight time 0h 58m
Altitude 35000
Route VXV SITTR TRUPS5
Aircraft A319/M-SDE3FGHIRWY/LB1

Departure

Time 2026-05-05 17:07
Airport McGhee Tyson Airport (KTYS)

Arrival

Time 2026-05-05 18:06
Airport Ronald Reagan Washington National Airport (KDCA)
Time Latitude Longitude Altitude Speed Heading
2026-05-05 16:50 35.80642 -83.99201 977 ft 0 kts 130°
2026-05-05 17:00 35.80649 -83.99211 979 ft 4 kts 133°
2026-05-05 17:00 35.80666 -83.99237 981 ft 4 kts 123°
2026-05-05 17:01 35.80678 -83.99266 977 ft 3 kts 111°
2026-05-05 17:01 35.80680 -83.99270 978 ft 1 kts 111°
2026-05-05 17:03 35.80683 -83.99280 978 ft 2 kts 91°
2026-05-05 17:03 35.80683 -83.99302 981 ft 0 kts 53°
2026-05-05 17:04 35.80690 -83.99290 987 ft 4 kts 50°
2026-05-05 17:04 35.80721 -83.99251 982 ft 9 kts 45°
2026-05-05 17:04 35.80776 -83.99182 978 ft 14 kts 45°
2026-05-05 17:04 35.80850 -83.99092 983 ft 14 kts 45°
2026-05-05 17:05 35.80945 -83.99037 978 ft 17 kts 360°
2026-05-05 17:05 35.81033 -83.98983 977 ft 3 kts 43°
2026-05-05 17:05 35.81068 -83.98941 983 ft 13 kts 44°
2026-05-05 17:05 35.81153 -83.98838 982 ft 17 kts 45°
2026-05-05 17:06 35.81248 -83.98823 977 ft 19 kts 315°
2026-05-05 17:06 35.81246 -83.98900 980 ft 0 kts 225°
2026-05-05 17:06 35.81237 -83.98911 981 ft 18 kts 224°
2026-05-05 17:06 35.80950 -83.99253 974 ft 94 kts 225°
2026-05-05 17:07 35.80341 -83.99997 1017 ft 146 kts 225°
2026-05-05 17:07 35.79591 -84.00925 1489 ft 161 kts 223°
2026-05-05 17:07 35.78752 -84.01980 1921 ft 185 kts 225°
2026-05-05 17:07 35.77788 -84.03177 2416 ft 209 kts 224°
2026-05-05 17:08 35.77029 -84.04822 2925 ft 240 kts 256°
2026-05-05 17:08 35.77273 -84.06939 3735 ft 263 kts 294°
2026-05-05 17:08 35.78579 -84.08579 4769 ft 281 kts 328°
2026-05-05 17:08 35.80502 -84.09105 5799 ft 294 kts
2026-05-05 17:09 35.82454 -84.08286 6762 ft 302 kts 36°
2026-05-05 17:09 35.83811 -84.06384 7694 ft 303 kts 64°
2026-05-05 17:09 35.84684 -84.03964 8696 ft 305 kts 73°
2026-05-05 17:09 35.85438 -84.01501 9643 ft 311 kts 72°
2026-05-05 17:10 35.86208 -83.98966 10377 ft 324 kts 72°
2026-05-05 17:10 35.87049 -83.96277 10760 ft 348 kts 68°
2026-05-05 17:10 35.88165 -83.93566 11433 ft 359 kts 61°
2026-05-05 17:10 35.89469 -83.90905 12253 ft 365 kts 58°
2026-05-05 17:11 35.91018 -83.88409 13107 ft 369 kts 45°
2026-05-05 17:11 35.92835 -83.86132 13997 ft 373 kts 45°
2026-05-05 17:11 35.94602 -83.83779 14795 ft 377 kts 47°
2026-05-05 17:11 35.96334 -83.81354 15578 ft 380 kts 48°
2026-05-05 17:12 35.97513 -83.79661 16079 ft 383 kts 48°
2026-05-05 17:12 36.00789 -83.74896 17479 ft 390 kts 48°
2026-05-05 17:12 36.04356 -83.69739 18861 ft 398 kts 47°
2026-05-05 17:12 36.08012 -83.64525 20072 ft 406 kts 46°
2026-05-05 17:13 36.10243 -83.61343 20791 ft 412 kts 46°
2026-05-05 17:13 36.12134 -83.58642 21388 ft 417 kts 45°
2026-05-05 17:13 36.14041 -83.55917 21979 ft 421 kts 45°
2026-05-05 17:13 36.15964 -83.53168 22552 ft 426 kts 45°
2026-05-05 17:14 36.17910 -83.50382 23236 ft 428 kts 45°
2026-05-05 17:14 36.19857 -83.47591 23794 ft 431 kts 45°
2026-05-05 17:14 36.21908 -83.44645 24313 ft 434 kts 45°
2026-05-05 17:14 36.23869 -83.41822 24859 ft 437 kts 45°
2026-05-05 17:15 36.25859 -83.38952 25342 ft 440 kts 44°
2026-05-05 17:15 36.27860 -83.36066 25794 ft 442 kts 44°
2026-05-05 17:15 36.29875 -83.33158 26255 ft 445 kts 44°
2026-05-05 17:15 36.31895 -83.30240 26721 ft 448 kts 44°
2026-05-05 17:16 36.33932 -83.27295 27162 ft 451 kts 44°
2026-05-05 17:16 36.35982 -83.24334 27590 ft 454 kts 44°
2026-05-05 17:16 36.38048 -83.21350 28027 ft 457 kts 43°
2026-05-05 17:16 36.40121 -83.18351 28473 ft 460 kts 43°
2026-05-05 17:17 36.42191 -83.15351 28878 ft 463 kts 43°
2026-05-05 17:17 36.44321 -83.12264 29300 ft 466 kts 43°
2026-05-05 17:17 36.46432 -83.09204 29709 ft 469 kts 43°
2026-05-05 17:17 36.48559 -83.06120 30076 ft 473 kts 43°
2026-05-05 17:18 36.50699 -83.03009 30429 ft 475 kts 43°
2026-05-05 17:18 36.52855 -82.99864 30803 ft 477 kts 42°
2026-05-05 17:18 36.55004 -82.96725 31186 ft 478 kts 42°
2026-05-05 17:18 36.57146 -82.93598 31483 ft 482 kts 42°
2026-05-05 17:19 36.59352 -82.90383 31788 ft 484 kts 41°
2026-05-05 17:19 36.61540 -82.87193 32252 ft 482 kts 41°
2026-05-05 17:19 36.63709 -82.84019 32756 ft 481 kts 40°
2026-05-05 17:19 36.65873 -82.80846 33264 ft 479 kts 40°
2026-05-05 17:20 36.68024 -82.77684 33765 ft 477 kts 39°
2026-05-05 17:20 36.70155 -82.74549 34281 ft 473 kts 39°
2026-05-05 17:20 36.72250 -82.71463 34737 ft 471 kts 39°
2026-05-05 17:20 36.74396 -82.68308 34972 ft 470 kts 38°
2026-05-05 17:21 36.78564 -82.62173 35044 ft 458 kts 38°
2026-05-05 17:22 36.84705 -82.53133 35074 ft 456 kts 38°
2026-05-05 17:22 36.88814 -82.47065 34994 ft 456 kts 38°
2026-05-05 17:23 36.92904 -82.41005 34999 ft 456 kts 38°
2026-05-05 17:23 36.96982 -82.34948 35015 ft 455 kts 38°
2026-05-05 17:24 37.01071 -82.28875 35009 ft 455 kts 38°
2026-05-05 17:24 37.05153 -82.22799 35007 ft 455 kts 38°
2026-05-05 17:25 37.09205 -82.16751 35020 ft 456 kts 38°
2026-05-05 17:25 37.13277 -82.10668 35027 ft 456 kts 38°
2026-05-05 17:26 37.17347 -82.04566 35041 ft 456 kts 38°
2026-05-05 17:26 37.21425 -81.98440 35068 ft 457 kts 38°
2026-05-05 17:27 37.25507 -81.92305 35041 ft 458 kts 38°
2026-05-05 17:27 37.29597 -81.86158 34980 ft 459 kts 38°
2026-05-05 17:28 37.33687 -81.79994 34981 ft 459 kts 39°
2026-05-05 17:28 37.37745 -81.73853 34975 ft 459 kts 39°
2026-05-05 17:29 37.41825 -81.67674 34977 ft 459 kts 39°
2026-05-05 17:29 37.45910 -81.61494 34993 ft 460 kts 39°
2026-05-05 17:30 37.50005 -81.55272 34996 ft 467 kts 39°
2026-05-05 17:30 37.54244 -81.48848 34997 ft 485 kts 40°
2026-05-05 17:31 37.58570 -81.42241 34994 ft 491 kts 40°
2026-05-05 17:31 37.62915 -81.35566 35007 ft 492 kts 40°
2026-05-05 17:32 37.67281 -81.28875 35028 ft 496 kts 40°
2026-05-05 17:32 37.71647 -81.22166 35049 ft 495 kts 40°
2026-05-05 17:33 37.76014 -81.15446 35055 ft 494 kts 40°
2026-05-05 17:33 37.78055 -81.11869 35051 ft 506 kts 50°
2026-05-05 17:33 37.79644 -81.07846 35056 ft 516 kts 58°
2026-05-05 17:34 37.82554 -80.99573 35050 ft 516 kts 58°
2026-05-05 17:34 37.85481 -80.91257 35039 ft 516 kts 58°
2026-05-05 17:35 37.88415 -80.82954 35021 ft 515 kts 58°
2026-05-05 17:35 37.91359 -80.74684 35002 ft 515 kts 57°
2026-05-05 17:36 37.94300 -80.66435 34985 ft 514 kts 58°
2026-05-05 17:36 37.97230 -80.58168 34984 ft 514 kts 58°
2026-05-05 17:37 38.00162 -80.49875 34991 ft 514 kts 58°
2026-05-05 17:37 38.03069 -80.41618 35005 ft 513 kts 58°
2026-05-05 17:38 38.05969 -80.33361 35005 ft 512 kts 58°
2026-05-05 17:38 38.08842 -80.25170 35003 ft 512 kts 58°
2026-05-05 17:39 38.11759 -80.16907 35000 ft 511 kts 57°
2026-05-05 17:39 38.14690 -80.08690 35013 ft 510 kts 57°
2026-05-05 17:40 38.17605 -80.00489 35016 ft 509 kts 58°
2026-05-05 17:40 38.20503 -79.92273 35014 ft 508 kts 58°
2026-05-05 17:41 38.23382 -79.84077 35016 ft 508 kts 58°
2026-05-05 17:41 38.26256 -79.75888 35003 ft 504 kts 58°
2026-05-05 17:41 38.27654 -79.71868 34987 ft 488 kts 58°
2026-05-05 17:42 38.29003 -79.67945 34987 ft 480 kts 58°
2026-05-05 17:42 38.31665 -79.60207 34988 ft 475 kts 58°
2026-05-05 17:43 38.34356 -79.52414 34678 ft 488 kts 58°
2026-05-05 17:43 38.35706 -79.48497 34363 ft 489 kts 58°
2026-05-05 17:43 38.37067 -79.44518 33674 ft 489 kts 58°
2026-05-05 17:43 38.38419 -79.40544 33021 ft 485 kts 59°
2026-05-05 17:44 38.39751 -79.36618 32375 ft 482 kts 60°
2026-05-05 17:44 38.41078 -79.32701 31782 ft 478 kts 61°
2026-05-05 17:44 38.42284 -79.28771 31229 ft 477 kts 69°
2026-05-05 17:44 38.43090 -79.24662 30675 ft 475 kts 75°
2026-05-05 17:45 38.43809 -79.20557 30133 ft 470 kts 75°
2026-05-05 17:45 38.44527 -79.16502 29545 ft 465 kts 75°
2026-05-05 17:45 38.45232 -79.12514 29040 ft 458 kts 76°
2026-05-05 17:45 38.45923 -79.08585 28540 ft 451 kts 76°
2026-05-05 17:46 38.46594 -79.04735 28048 ft 445 kts 76°
2026-05-05 17:46 38.47261 -79.00908 27636 ft 437 kts 76°
2026-05-05 17:46 38.47919 -78.97139 27188 ft 431 kts 76°
2026-05-05 17:46 38.48570 -78.93419 26673 ft 428 kts 76°
2026-05-05 17:47 38.49219 -78.89699 26141 ft 426 kts 76°
2026-05-05 17:47 38.49857 -78.86039 25733 ft 421 kts 76°
2026-05-05 17:47 38.50480 -78.82388 25214 ft 419 kts 77°
2026-05-05 17:47 38.51065 -78.78768 24857 ft 414 kts 78°
2026-05-05 17:48 38.51613 -78.75232 24231 ft 408 kts 78°
2026-05-05 17:48 38.52152 -78.71690 23755 ft 405 kts 78°
2026-05-05 17:48 38.52691 -78.68159 23261 ft 403 kts 78°
2026-05-05 17:48 38.53055 -78.65788 22936 ft 400 kts 78°
2026-05-05 17:49 38.53770 -78.61204 22589 ft 397 kts 78°
2026-05-05 17:49 38.54143 -78.58877 22411 ft 395 kts 77°
2026-05-05 17:49 38.54691 -78.55485 22157 ft 394 kts 78°
2026-05-05 17:49 38.55247 -78.52051 21891 ft 393 kts 78°
2026-05-05 17:50 38.55793 -78.48650 21636 ft 391 kts 78°
2026-05-05 17:50 38.56335 -78.45222 21367 ft 396 kts 78°
2026-05-05 17:50 38.56895 -78.41666 21095 ft 421 kts 78°
2026-05-05 17:50 38.57482 -78.37943 20749 ft 432 kts 78°
2026-05-05 17:51 38.58109 -78.34175 20203 ft 431 kts 77°
2026-05-05 17:51 38.58762 -78.30427 19722 ft 430 kts 77°
2026-05-05 17:51 38.59424 -78.26720 19226 ft 427 kts 77°
2026-05-05 17:51 38.60293 -78.23115 18750 ft 423 kts 66°
2026-05-05 17:52 38.61450 -78.19650 18306 ft 421 kts 66°
2026-05-05 17:52 38.62583 -78.16200 17854 ft 419 kts 66°
2026-05-05 17:52 38.63691 -78.12757 17425 ft 417 kts 67°
2026-05-05 17:52 38.64791 -78.09314 16989 ft 417 kts 67°
2026-05-05 17:53 38.65883 -78.05892 16407 ft 416 kts 67°
2026-05-05 17:53 38.66972 -78.02482 15830 ft 414 kts 67°
2026-05-05 17:53 38.68062 -77.99080 15229 ft 411 kts 67°
2026-05-05 17:53 38.69146 -77.95694 14656 ft 409 kts 68°
2026-05-05 17:54 38.70209 -77.92364 14105 ft 408 kts 68°
2026-05-05 17:54 38.71291 -77.88973 13502 ft 406 kts 68°
2026-05-05 17:54 38.72350 -77.85670 13029 ft 403 kts 68°
2026-05-05 17:54 38.73627 -77.82470 12930 ft 403 kts 54°
2026-05-05 17:55 38.75397 -77.79710 12821 ft 384 kts 46°
2026-05-05 17:55 38.78479 -77.75260 12413 ft 348 kts 46°
2026-05-05 17:55 38.80082 -77.72953 11824 ft 344 kts 46°
2026-05-05 17:55 38.81671 -77.70670 11194 ft 342 kts 46°
2026-05-05 17:56 38.83191 -77.68463 10749 ft 337 kts 47°
2026-05-05 17:56 38.84723 -77.66182 10381 ft 337 kts 47°
2026-05-05 17:56 38.86245 -77.63881 9998 ft 337 kts 48°
2026-05-05 17:56 38.87741 -77.61609 9588 ft 335 kts 48°
2026-05-05 17:57 38.89235 -77.59336 9219 ft 332 kts 48°
2026-05-05 17:57 38.90735 -77.57061 8920 ft 325 kts 49°
2026-05-05 17:57 38.92168 -77.54892 8665 ft 319 kts 49°
2026-05-05 17:57 38.93605 -77.52709 8171 ft 316 kts 51°
2026-05-05 17:58 38.94752 -77.50317 7830 ft 312 kts 67°
2026-05-05 17:58 38.95611 -77.47758 7431 ft 311 kts 69°
2026-05-05 17:58 38.96456 -77.45230 7096 ft 305 kts 69°
2026-05-05 17:58 38.97291 -77.42736 6529 ft 302 kts 69°
2026-05-05 17:59 38.98116 -77.40275 6086 ft 297 kts 69°
2026-05-05 17:59 38.98932 -77.37841 5691 ft 294 kts 69°
2026-05-05 17:59 38.99733 -77.35442 5415 ft 289 kts 69°
2026-05-05 17:59 39.00511 -77.33106 4964 ft 285 kts 70°
2026-05-05 18:00 39.01287 -77.30783 4495 ft 281 kts 69°
2026-05-05 18:00 39.02000 -77.28658 4106 ft 281 kts 69°
2026-05-05 18:00 39.02573 -77.26280 3721 ft 273 kts 88°
2026-05-05 18:00 39.02440 -77.23950 3352 ft 259 kts 111°
2026-05-05 18:01 39.01796 -77.22119 3187 ft 240 kts 129°
2026-05-05 18:01 39.00722 -77.20565 3093 ft 228 kts 143°
2026-05-05 18:01 38.99573 -77.19182 2985 ft 222 kts 143°
2026-05-05 18:01 38.98469 -77.17851 2868 ft 211 kts 143°
2026-05-05 18:02 38.97396 -77.16569 2766 ft 206 kts 143°
2026-05-05 18:02 38.96354 -77.15332 2712 ft 200 kts 144°
2026-05-05 18:02 38.95432 -77.14230 2647 ft 189 kts 144°
2026-05-05 18:02 38.94486 -77.13102 2662 ft 180 kts 145°
2026-05-05 18:03 38.93639 -77.12082 2683 ft 161 kts 146°
2026-05-05 18:03 38.92700 -77.10984 2693 ft 169 kts 147°
2026-05-05 18:03 38.91923 -77.09984 2681 ft 172 kts 143°
2026-05-05 18:03 38.91179 -77.08869 2385 ft 162 kts 133°
2026-05-05 18:04 38.90556 -77.07714 1931 ft 156 kts 135°
2026-05-05 18:04 38.89871 -77.06648 1369 ft 155 kts 137°
2026-05-05 18:04 38.89146 -77.05725 1010 ft 144 kts 144°
2026-05-05 18:04 38.88459 -77.04989 751 ft 134 kts 147°
2026-05-05 18:05 38.87703 -77.04375 486 ft 124 kts 156°
2026-05-05 18:05 38.86911 -77.04015 282 ft 118 kts 169°
2026-05-05 18:05 38.86101 -77.03869 51 ft 118 kts 179°
2026-05-05 18:05 38.85434 -77.03810 29 ft 62 kts 175°
2026-05-05 18:06 38.85259 -77.03793 22 ft 9 kts 179°
2026-05-05 18:06 38.85240 -77.03793 22 ft 10 kts 180°
2026-05-05 18:06 38.85138 -77.03856 23 ft 6 kts 220°
2026-05-05 18:06 38.85134 -77.03861 23 ft 0 kts 220°
2026-05-05 18:08 38.85126 -77.03870 23 ft 5 kts 221°
2026-05-05 18:08 38.85078 -77.03913 22 ft 13 kts 213°